Date String (YYYY-MM-DD hh:mm:ss) UTC,Instrument flags,Ambient pressure (hPa),Sample flow (lpm),Bypass flow (lpm),Sample temperature (°C),Ambient temperature (°C),ASC tube jacket temperature (°C),LED temperature (°C),Box temperature (°C),Sample RH (%),Span deviation,Mass concentration (μg/m³),Mass concentration (μg/m³),Mass concentration (μg/m³)
DateTimeUTC,F1_M11,P_M11,Q1_M11,Q2_M11,T1_M11,T2_M11,T3_M11,T4_M11,T5_M11,U1_M11,ZSPAN_M11,X0_M11,X2_M11,X1_M11
2023-01-05 17:00:00,,0826.5,4.96,0.00,21.8,20.1,00.0,30.7,23.3,08.3,0000.0,0012.15,0008.55,0008.27
2023-01-05 17:01:00,,0826.5,5.07,0.00,21.7,19.8,00.0,30.6,23.2,08.3,0000.0,0012.06,0008.56,0008.28
2023-01-05 17:02:00,,0826.5,4.98,0.00,21.7,20.6,00.0,30.6,23.3,08.3,0000.0,0012.45,0008.63,0008.33
2023-01-05 17:03:00,,0826.5,5.01,0.00,21.8,22.0,00.0,30.6,23.7,08.3,0000.0,0012.92,0008.66,0008.37
2023-01-05 17:04:00,,0826.5,4.96,0.00,22.0,22.4,00.0,30.6,23.9,08.3,0000.0,0012.83,0008.65,0008.37
2023-01-05 17:05:00,,0826.5,4.99,0.00,22.0,22.0,00.0,30.7,23.9,08.3,0000.0,0012.69,0008.72,0008.44
2023-01-05 17:06:00,,0826.5,5.06,0.00,22.0,21.4,00.0,30.7,23.7,08.0,0000.0,0012.50,0008.55,0008.29
2023-01-05 17:07:00,,0826.4,4.99,0.00,21.9,21.0,00.0,30.7,23.6,08.1,0000.0,0012.49,0008.49,0008.21
2023-01-05 17:08:00,,0826.5,4.99,0.00,21.9,20.6,00.0,30.7,23.5,08.1,0000.0,0012.39,0008.36,0008.08
2023-01-05 17:09:00,,0826.5,4.98,0.00,21.9,20.4,00.0,30.7,23.5,08.0,0000.0,0012.13,0008.16,0007.91
2023-01-05 17:10:00,,0826.5,4.99,0.00,21.8,20.4,00.0,30.7,23.5,07.9,0000.1,0011.92,0008.00,0007.76
2023-01-05 17:11:00,,0826.5,4.98,0.00,21.8,20.4,00.0,30.7,23.5,07.9,0000.4,0011.67,0007.82,0007.58
2023-01-05 17:12:00,,0826.5,4.99,0.00,21.8,20.3,00.0,30.7,23.4,07.8,0001.0,0011.40,0007.54,0007.30
2023-01-05 17:13:00,,0826.4,5.00,0.00,21.8,20.3,00.0,30.7,23.4,07.8,0001.5,0011.09,0007.26,0007.04
2023-01-05 17:14:00,,0826.4,5.03,0.00,21.8,20.3,00.0,30.7,23.4,07.8,0000.9,0010.13,0007.02,0006.79
2023-01-05 17:15:00,,0826.5,4.98,0.00,21.8,20.6,00.0,30.7,23.5,08.0,0001.4,0010.00,0006.90,0006.67
2023-01-05 17:16:00,,0826.5,4.99,0.00,21.9,21.8,00.0,30.6,23.8,07.9,0000.6,0009.75,0006.68,0006.46
2023-01-05 17:17:00,,0826.3,5.03,0.00,22.0,22.6,00.0,30.7,24.1,07.8,0000.1,0009.66,0006.57,0006.31
2023-01-05 17:18:00,,0826.2,5.02,0.00,22.1,22.4,00.0,30.7,24.1,07.7,0000.6,0009.47,0006.45,0006.22
2023-01-05 17:19:00,,0826.2,4.97,0.00,22.2,22.1,00.0,30.8,24.0,07.6,0000.0,0009.25,0006.28,0006.07
2023-01-05 17:20:00,,0826.2,4.96,0.00,22.2,21.7,00.0,30.8,24.0,07.6,0000.0,0009.13,0006.16,0005.92
2023-01-05 17:21:00,,0826.1,4.98,0.00,22.2,21.5,00.0,30.8,23.9,07.6,0000.0,0009.22,0006.09,0005.85
2023-01-05 17:22:00,,0826.2,5.05,0.00,22.2,21.3,00.0,30.9,23.9,07.7,0000.0,0009.27,0006.07,0005.81
2023-01-05 17:23:00,,0826.2,4.99,0.00,22.2,21.1,00.0,30.9,23.9,07.7,0000.0,0009.25,0006.08,0005.82
2023-01-05 17:24:00,,0826.1,4.97,0.00,22.1,21.0,00.0,30.9,23.9,07.6,0000.0,0009.21,0006.08,0005.82
2023-01-05 17:25:00,,0826.2,4.99,0.00,22.1,20.9,00.0,30.9,23.9,07.6,0000.0,0009.65,0006.04,0005.79
2023-01-05 17:26:00,,0826.2,5.01,0.00,22.1,20.9,00.0,30.9,23.8,07.6,0000.0,0010.01,0005.90,0005.67
2023-01-05 17:27:00,,0826.2,5.06,0.00,22.1,20.9,00.0,30.9,23.8,07.6,0000.0,0009.89,0005.82,0005.59
2023-01-05 17:28:00,,0826.1,4.99,0.00,22.1,20.8,00.0,30.9,23.8,07.7,0000.0,0009.81,0005.75,0005.55
2023-01-05 17:29:00,,0826.1,4.99,0.00,22.1,20.8,00.0,30.9,23.8,07.8,0000.0,0009.86,0005.77,0005.56
2023-01-05 17:30:00,,0826.1,5.00,0.00,22.1,20.7,00.0,30.9,23.8,07.9,0000.0,0009.99,0005.87,0005.66
2023-01-05 17:31:00,,0826.1,5.02,0.00,22.1,20.7,00.0,30.9,23.8,08.3,0000.0,0010.29,0006.05,0005.85
2023-01-05 17:32:00,,0826.0,4.99,0.00,22.1,20.7,00.0,30.9,23.8,08.4,0000.0,0010.55,0006.25,0006.05
2023-01-05 17:33:00,,0826.0,5.00,0.00,22.1,20.7,00.0,30.9,23.8,08.3,0000.0,0010.65,0006.41,0006.22
2023-01-05 17:34:00,,0826.1,5.01,0.00,22.1,20.7,00.0,30.9,23.8,08.2,0000.0,0011.49,0006.56,0006.34
2023-01-05 17:35:00,,0826.2,5.00,0.00,22.1,20.8,00.0,30.9,23.8,08.0,0000.0,0011.58,0006.62,0006.41
2023-01-05 17:36:00,,0826.2,5.00,0.00,22.1,21.8,00.0,30.9,24.0,08.0,0000.0,0011.26,0006.71,0006.48
2023-01-05 17:37:00,,0826.2,5.00,0.00,22.3,22.8,00.0,30.9,24.3,07.8,0000.0,0010.98,0006.77,0006.53
2023-01-05 17:38:00,,0826.2,4.99,0.00,22.4,22.7,00.0,30.9,24.3,08.0,0000.0,0011.05,0006.83,0006.61
2023-01-05 17:39:00,,0826.1,4.99,0.00,22.4,22.3,00.0,31.0,24.3,08.4,0000.0,0011.30,0007.05,0006.80
2023-01-05 17:40:00,,0826.2,5.00,0.00,22.4,22.0,00.0,31.0,24.2,08.4,0000.0,0011.77,0007.32,0007.06
2023-01-05 17:41:00,,0826.2,4.99,0.00,22.4,21.7,00.0,31.1,24.2,08.4,0000.0,0012.26,0007.56,0007.29
2023-01-05 17:42:00,,0826.2,5.00,0.00,22.4,21.5,00.0,31.1,24.1,08.6,0000.0,0012.42,0007.72,0007.44
2023-01-05 17:43:00,,0826.1,4.99,0.00,22.4,21.4,00.0,31.1,24.1,08.9,0000.0,0012.38,0007.86,0007.59
2023-01-05 17:44:00,,0826.0,5.00,0.00,22.3,21.2,00.0,31.1,24.1,08.9,0000.0,0012.57,0008.00,0007.72
2023-01-05 17:45:00,,0826.0,5.00,0.00,22.3,21.2,00.0,31.1,24.1,08.6,0000.0,0012.31,0008.14,0007.86
2023-01-05 17:46:00,,0826.0,5.00,0.00,22.3,21.1,00.0,31.1,24.0,08.8,0000.0,0013.20,0008.43,0008.11
2023-01-05 17:47:00,,0826.0,5.00,0.00,22.3,21.1,00.0,31.1,24.1,09.0,0000.0,0013.52,0008.75,0008.42
2023-01-05 17:48:00,,0826.0,4.99,0.00,22.3,21.0,00.0,31.1,24.0,09.1,0001.2,0013.79,0009.10,0008.78
2023-01-05 17:49:00,,0826.1,5.01,0.00,22.3,21.0,00.0,31.1,24.0,09.1,0001.1,0014.21,0009.46,0009.14
2023-01-05 17:50:00,,0826.1,5.00,0.00,22.3,21.0,00.0,31.1,24.0,09.0,0002.1,0014.62,0009.62,0009.32
2023-01-05 17:51:00,,0826.0,5.00,0.00,22.3,21.0,00.0,31.1,24.0,09.1,0002.3,0014.52,0009.69,0009.41
2023-01-05 17:52:00,,0826.0,5.00,0.00,22.3,20.9,00.0,31.1,24.0,09.1,0002.6,0014.48,0009.74,0009.49
2023-01-05 17:53:00,,0826.1,5.00,0.00,22.3,20.9,00.0,31.1,24.0,09.1,0002.6,0014.74,0009.83,0009.57
2023-01-05 17:54:00,,0826.1,4.99,0.00,22.3,20.9,00.0,31.1,24.0,08.7,0002.4,0014.67,0009.82,0009.54
2023-01-05 17:55:00,,0826.0,5.00,0.00,22.2,20.9,00.0,31.1,23.9,08.8,0001.9,0014.69,0009.81,0009.53
2023-01-05 17:56:00,,0826.0,5.01,0.00,22.3,21.5,00.0,31.0,24.1,08.7,0001.3,0014.59,0009.81,0009.56
2023-01-05 17:57:00,,0826.0,5.02,0.00,22.4,22.5,00.0,31.0,24.3,08.6,0000.7,0013.82,0009.77,0009.53
2023-01-05 17:58:00,,0825.9,4.99,0.00,22.5,22.7,00.0,31.1,24.5,08.6,0000.8,0013.80,0009.69,0009.44
2023-01-05 17:59:00,,0825.9,4.99,0.00,22.5,22.4,00.0,31.1,24.4,08.7,0000.3,0013.74,0009.60,0009.35
